カタログに戻る

COSMOS 2452

運用中ナビゲーションPO
NORAD 35499·PAYLOAD·🇷🇺 Russia

打ち上げ Jul 6, 2009 から Plesetsk Cosmodrome

Loading…

次のパス (今後24時間)

TLE

最新Source: Space-Track

元期: Sep 14, 2026, 18:30 UTC

1 35499U 09036B   26257.77140263  .00000023  00000-0  97238-4 0  9998
2 35499  82.4938  23.7730 0015012 304.0524  55.9130 12.43012736779909

AllMySatでCOSMOS 2452をリアルタイム追跡

Download on the App Store